Location: Unspecified
(0.0000°N, 0.0000°E)
Time: 12:11:03
(UTC+00:00)

NOAA 15 - Visible Passes

Search period start: 22 May 2019 00:00
Search period end: 01 June 2019 00:00
Orbit: 798 x 812 km, 98.7° (Epoch: 21 May)

Date Brightness Start Highest point End Pass type
(mag) Time Alt. Az. Time Alt. Az. Time Alt. Az.
22 May 6.6 19:38:32 10° SSW 19:42:43 24° WSW 19:46:55 10° NW visible
23 May 5.5 19:12:42 10° S 19:17:45 49° WSW 19:22:47 10° NNW visible
24 May 4.5 18:47:31 10° SSE 18:52:46 83° ENE 18:58:01 10° N visible
25 May 5.1 18:22:53 10° SSE 18:27:47 41° ENE 18:32:41 10° N visible
25 May 7.3 20:05:16 10° SW 20:07:16 12° WSW 20:09:15 10° W visible
26 May 6.6 19:38:05 10° SSW 19:42:19 25° WSW 19:46:32 10° NW visible
27 May 5.4 19:12:17 10° S 19:17:20 50° WSW 19:22:24 10° NNW visible
28 May 4.5 18:47:06 10° SSE 18:52:21 81° ENE 18:57:37 10° N visible
29 May 5.1 18:22:29 10° SE 18:27:23 40° ENE 18:32:15 10° N visible
29 May 7.3 20:04:45 10° SW 20:06:51 12° WSW 20:08:58 10° W visible
30 May 6.6 19:37:38 10° SSW 19:41:54 25° WSW 19:46:10 10° NW visible
31 May 5.4 19:11:51 10° S 19:16:56 51° WSW 19:22:00 10° NNW visible
